Regional Weather Roundup
Issued by NWS

Home | Current Version | Previous Version | Text Only | Print | Product List | Glossary On
Versions: 1 2 3 4 5 6 7 8 9 10 11 12 13 14 15 16 17 18 19 20 21 22 23 24 25 26 27 28 29 30 31 32 33 34 35 36 37 38 39 40 41 42 43 44 45 46 47 48 49 50
000
ASUS43 KDMX 060408
RWRIA

WEATHER ROUNDUP FOR IOWA
NATIONAL WEATHER SERVICE DES MOINES IA
1000 PM CST FRI FEB 05 2016

NOTE: "FAIR" INDICATES FEW OR NO CLOUDS BELOW 12,000 FEET WITH NO
SIGNIFICANT WEATHER AND/OR OBSTRUCTIONS TO VISIBILITY.

* - THESE STATIONS ARE NOT NWS STATIONS...THUS NOT UNDER NWS
QUALITY CONTROL.  THEY ALSO DO NOT REPORT WEATHER SUCH
AS PRECIPITATION OR FOG.

IAZ001>003-012>014-020>022-031>034-043>046-060500-
   NORTHWEST IOWA

CITY           SKY/WX    TMP DP  RH WIND       PRES   REMARKS
CARROLL *      CLOUDY    30  28  93 SW7       30.23S FOG     WCI  23
CHEROKEE *     CLOUDY    27  27 100 CALM      30.22S FOG
DENISON *      CLOUDY    28  28 100 S3        30.21R FOG
LE MARS *      CLOUDY    27  27 100 CALM      30.24R FOG
ORANGE CITY *  CLOUDY    27  27 100 CALM      30.20S FOG
SHELDON *      CLOUDY    28  28 100 W6        30.19S FOG     WCI  22
SIOUX CITY     CLOUDY    31  26  82 NW7       30.24R WCI  24
SPENCER        CLOUDY    27  24  89 SW5       30.20S FOG     WCI  22
STORM LAKE *   CLOUDY    28  28 100 SW8       30.21R FOG     WCI  20
$$

IAZ055>058-069>071-079>083-090>094-060500-
   SOUTHWEST IOWA

CITY           SKY/WX    TMP DP  RH WIND       PRES   REMARKS
ATLANTIC *     CLOUDY    27  27 100 SW6       30.24S FOG     WCI  20
AUDUBON *      CLOUDY    30  27  86 SW8       30.24S FOG     WCI  23
CLARINDA *     FOG       23  23 100 CALM      30.28S VSB 1/4
COUNCIL BLFS * CLOUDY    30  28  93 SW6       30.23S FOG     WCI  24
CRESTON *      CLOUDY    27  27 100 S6        30.25S FOG     WCI  20
HARLAN  *      CLOUDY    28  28 100 S9        30.27R FOG     WCI  20
LAMONI         PTCLDY    28  24  85 S6        30.25F WCI  22
RED OAK *      CLOUDY    28  28 100 SW5       30.25S FOG     WCI  23
SHENANDOAH *   CLOUDY    28  28 100 CALM      30.27R FOG
$$

IAZ047>049-059>061-072>074-084-060500-
   CENTRAL IOWA

CITY           SKY/WX    TMP DP  RH WIND       PRES   REMARKS
AMES           CLOUDY    28  25  88 S7        30.25F WCI  21
ANKENY *       CLOUDY    28  27  93 S6        30.26F WCI  22
BOONE *        CLOUDY    28  27  93 S9        30.22F WCI  20
CHARITON *     CLOUDY    30  25  80 S7        30.27S WCI  23
DES MOINES     CLOUDY    30  24  78 S7        30.27S WCI  23
GRINNELL*      CLOUDY    28  23  80 S6        30.27S WCI  22
KNOXVILLE *    CLOUDY    30  25  80 S9        30.26F WCI  22
MARSHALLTOWN   CLOUDY    26  24  92 S7        30.25F WCI  18
NEWTON *       CLOUDY    28  28 100 S7        30.27S WCI  21
PELLA *        MOCLDY    30  23  74 S7        30.29F WCI  23
$$

IAZ004>006-015-016-023>025-035-036-060500-
   NORTH CENTRAL IOWA

CITY           SKY/WX    TMP DP  RH WIND       PRES   REMARKS
ALGONA *       CLOUDY    27  27 100 SW9       30.21S WCI  17
CLARION *      CLOUDY    27  25  93 S12       30.23R FOG     WCI  16
ESTHERVILLE    CLOUDY    26  24  92 SW9       30.19S FOG     WCI  17
FORT DODGE *   CLOUDY    27  23  86 S8        30.24R WCI  18
MASON CITY     CLOUDY    24  22  91 SW13      30.24R WCI  12
FOREST CITY *  CLOUDY    27  27 100 SW9       30.22S FOG     WCI  17
WEBSTER CITY * CLOUDY    27  27 100 S9        30.22R WCI  17
IOWA FALLS *   CLOUDY    27  25  93 S10       30.24S WCI  17
$$

IAZ007>011-017>019-026>030-037>042-050>054-066-060500-
   NORTHEAST IOWA

CITY           SKY/WX    TMP DP  RH WIND       PRES   REMARKS
CEDAR RAPIDS   CLOUDY    27  23  85 S6        30.28F WCI  20
CHARLES CITY * CLOUDY    25  25 100 S13       30.25S WCI  13
CLINTON *      MOCLDY    26  23  88 S5        30.31F WCI  20
DECORAH *      CLOUDY    23  21  93 SW6       30.24F WCI  16
DUBUQUE        CLOUDY    25  21  85 S8        30.27F WCI  16
MONTICELLO *   CLOUDY    28  23  80 S8        30.29S WCI  20
OELWEIN *      CLOUDY    25  23  93 S8        30.27F WCI  16
WATERLOO       CLOUDY    26  22  84 S7        30.27F WCI  18
$$

IAZ064-065-067-068-078-060500-
   EAST CENTRAL IOWA

CITY           SKY/WX    TMP DP  RH WIND       PRES   REMARKS
DAVENPORT      CLOUDY    28  22  78 S3        30.31F
IOWA CITY      CLOUDY    27  22  81 CALM      30.33R
MT. PLEASANT * CLOUDY    30  25  80 SE5       30.31F WCI  25
MUSCATINE *    CLOUDY    28  23  80 CALM      30.33S
QUAD CITIES    CLOUDY    28  22  78 CALM      30.32F
$$

IAZ062-063-075>077-085>089-095>099-060500-
   SOUTHEAST IOWA

CITY           SKY/WX    TMP DP  RH WIND       PRES   REMARKS
BURLINGTON     PTCLDY    25  20  81 S5        30.31F WCI  19
FAIRFIELD *    CLOUDY    30  21  69 S6        30.30S WCI  24
FORT MADISON * CLOUDY    27  23  86 SE3       30.31F
KEOKUK *       CLOUDY    28  23  80 S5        30.31S WCI  23
OSKALOOSA *    CLOUDY    28  25  86 S5        30.29F WCI  23
CENTERVILLE *    N/A    N/A N/A N/A MISG        N/A
OTTUMWA        CLOUDY    30  23  75 S5        30.29S WCI  25
WASHINGTON *   CLOUDY    28  25  86 S5        30.32S WCI  23
$$

ABBREVIATIONS USED IN REMARKS
   TC - TEMPERATURES IN CELSIUS
  WCI - WIND CHILL INDEX
   HX - HEAT INDEX
  VSB - VISIBILITY
$$




USA.gov is the U.S. government's official web portal to all federal, state and local government web resources and services.